[[{"header":{"parameterUnit":"m.s-1","parameterCategory":1,"la1":30.2991,"la2":30.254,"lo1":-89.0895,"lo2":-89.0444,"dy":0.0017,"dx":0.0017,"nx":28,"ny":28,"refTime":"2025-12-15T03:00:00:Z","depth":0,"parameterNumber":2,"parameterNumberName":"U-component_of_WINDS"},"data":[0,0,0,0,0,0,0,0,0,0,0,0,0,0,0,0,0,0,0,0,0,0,0,0,0,0,0,0,0,0,0,0,0,0,0,0,0,0,0,0,0,0,0,0,0,0,0,0,0,0,0,0,0,0,0,0,0,0,-2.4868,-2.4868,0,-2.4871,-2.4872,-2.4872,-2.4831,-2.483,-2.4829,-2.4828,-2.4832,-2.4833,-2.4834,0,0,0,0,0,0,0,0,0,0,0,0,0,-2.483,-2.4831,-2.4868,-2.4868,-2.4869,-2.4871,-2.4872,-2.4872,-2.4832,-2.483,-2.4829,-2.4828,-2.4832,-2.4833,-2.4835,0,0,0,0,0,0,0,0,0,0,0,0,0,-2.4841,-2.4831,-2.4868,-2.4849,-2.4847,-2.4871,-2.4872,-2.4872,-2.4832,-2.483,-2.4829,-2.4827,-2.4831,-2.4833,-2.4835,-2.4878,0,0,-2.484,-2.4841,0,0,0,0,0,0,0,0,-2.4841,-2.4843,-2.4852,-2.485,-2.4848,-2.4849,-2.4859,-2.4874,-2.4832,-2.4838,-2.4828,-2.4826,-2.4839,-2.484,-2.4844,-2.4878,-2.4879,-2.484,-2.4841,-2.4842,-2.4842,0,0,0,0,0,0,0,-2.484,-2.4842,-2.487,-2.4852,-2.485,-2.4841,-2.484,-2.4862,-2.4848,-2.4837,-2.4834,-2.4835,-2.4838,-2.4843,-2.4844,-2.4879,-2.484,-2.4842,-2.4843,-2.4843,-2.4949,-2.495,0,0,0,0,0,0,-2.4842,-2.4842,-2.487,-2.487,-2.484,-2.4843,-2.4842,-2.4851,-2.4847,-2.4845,-2.4836,-2.4833,-2.4841,-2.4842,-2.4844,-2.4894,-2.4842,-2.4843,-2.4844,-2.4947,-2.4949,-2.4951,0,0,0,0,0,0,-2.4841,-2.4844,-2.4869,-2.4855,-2.4858,-2.4845,-2.4855,-2.4852,-2.4856,-2.4847,-2.4844,-2.4844,-2.484,-2.4842,-2.487,-2.4894,-2.4844,-2.4846,-2.4945,-2.4948,-2.495,-2.4995,0,0,0,0,0,0,-2.484,-2.4844,-2.486,-2.4856,-2.4858,-2.4894,-2.4856,-2.4853,-2.4859,-2.4855,-2.4853,-2.4851,-2.4839,-2.4868,-2.4872,-2.4895,-2.4847,-2.4943,-2.4946,-2.4949,-2.4991,-2.4998,-2.5005,0,0,0,0,0,-2.4839,-2.4873,-2.4861,-2.4865,-2.4878,-2.4896,-2.4897,-2.4882,-2.4861,-2.4877,-2.4872,-2.4851,-2.4891,-2.4871,-2.4875,-2.4899,-2.4941,-2.4945,-2.4949,-2.4988,-2.4997,-2.5005,0,0,0,0,0,0,-2.488,-2.4872,-2.4859,-2.4892,-2.4895,-2.4889,-2.4908,-2.4892,-2.4901,-2.4897,-2.4878,-2.4878,-2.4909,-2.4907,-2.4885,-2.4942,-2.4913,-2.4918,-2.4941,-2.4949,-2.4956,-2.4955,-2.4848,0,0,0,0,0,-2.4893,-2.4908,-2.49,-2.4931,-2.4933,-2.4921,-2.4928,-2.4916,-2.4918,-2.4919,-2.4915,-2.4919,-2.4932,-2.4941,-2.4953,-2.4992,-2.4991,-2.5011,-2.5018,-2.5024,-2.5027,-2.5048,-2.5056,-2.4964,-2.4964,-2.4964,0,0,-2.492,-2.4917,-2.4928,-2.4939,-2.4939,-2.4956,-2.4922,-2.494,-2.4952,-2.4922,-2.4948,-2.4946,-2.4949,-2.4982,-2.4997,-2.4982,-2.5053,-2.5029,-2.5034,-2.5034,-2.5053,-2.5061,-2.5069,-2.4967,-2.4966,-2.4966,0,0,-2.4976,-2.4976,-2.5001,-2.5003,-2.5005,-2.4997,-2.5003,-2.5,-2.4998,-2.5023,-2.5001,-2.5016,-2.504,-2.5042,-2.5047,-2.5107,-2.5089,-2.5112,-2.5147,-2.5167,-2.5175,-2.5181,-2.5201,-2.5209,-2.5116,-2.5116,-2.5116,0,-2.5009,-2.5032,-2.5016,-2.5036,-2.5042,-2.5016,-2.5041,-2.5044,-2.505,-2.5055,-2.5039,-2.5068,-2.5068,-2.5102,-2.5117,-2.5122,-2.5128,-2.511,-2.5175,-2.5181,-2.5187,-2.5206,-2.5213,-2.5119,-2.5119,-2.5118,-2.5118,0,-2.5072,-2.5088,-2.5109,-2.5114,-2.5123,-2.5146,-2.5134,-2.5144,-2.5133,-2.5127,-2.5154,-2.5154,-2.5165,-2.5173,-2.5162,-2.5206,-2.5196,-2.5178,-2.5148,-2.5198,-2.5216,-2.5223,-2.5123,-2.5122,-2.5121,-2.512,0,0,-2.5151,-2.5149,-2.5157,-2.5159,-2.5161,-2.5173,-2.5196,-2.5207,-2.5216,-2.5222,-2.524,-2.5262,-2.5245,-2.525,-2.524,-2.5258,-2.5304,-2.5237,-2.5237,-2.5248,-2.5352,-2.5364,-2.5372,-2.5294,-2.5295,-2.5296,-2.5351,0,-2.5204,-2.5241,-2.5228,-2.5266,-2.5281,-2.5259,-2.5278,-2.5282,-2.5278,-2.5291,-2.5287,-2.5301,-2.5279,-2.5282,-2.5299,-2.5295,-2.5325,-2.5291,-2.5309,-2.531,-2.5306,-2.5382,-2.5394,-2.5445,-2.5358,-2.5359,-2.536,0,-2.527,-2.5279,-2.5318,-2.5317,-2.5323,-2.5341,-2.535,-2.5363,-2.5367,-2.5363,-2.537,-2.5356,-2.5379,-2.5352,-2.5382,-2.536,-2.5368,-2.5367,-2.5369,-2.5367,-2.5336,-2.538,-2.5461,-2.5468,-2.5371,-2.537,-2.5369,0,-2.5322,-2.5344,-2.5369,-2.5373,-2.5373,-2.5386,-2.5387,-2.539,-2.5397,-2.5407,-2.5411,-2.5423,-2.5429,-2.5439,-2.543,-2.5411,-2.5462,-2.5434,-2.5459,-2.5459,-2.5468,-2.5467,-2.5549,-2.5477,-2.5477,-2.5477,-2.5477,0,-2.5381,-2.5405,-2.5392,-2.5408,-2.5435,-2.5422,-2.5449,-2.5448,-2.5451,-2.5466,-2.5449,-2.5464,-2.5451,-2.5466,-2.5459,-2.5485,-2.5489,-2.5486,-2.5483,-2.5486,-2.5486,-2.5488,-2.5483,-2.5479,-2.5478,-2.5478,-2.5478,0,-2.5442,-2.5434,-2.546,-2.546,-2.546,-2.548,-2.5479,-2.5494,-2.549,-2.551,-2.5514,-2.5508,-2.5524,-2.5516,-2.5533,-2.5529,-2.5562,-2.5556,-2.556,-2.5557,-2.5582,-2.5579,-2.5666,-2.5677,-2.56,-2.5601,-2.5602,0,-2.5478,-2.5496,-2.5498,-2.5507,-2.5509,-2.5524,-2.5532,-2.5521,-2.553,-2.5537,-2.5551,-2.5566,-2.5577,-2.5604,-2.5601,-2.5614,-2.5607,-2.5637,-2.5609,-2.5611,-2.5605,-2.5603,-2.5604,-2.5641,-2.5642,-2.5643,-2.5644,0,-2.5544,-2.554,-2.5551,-2.5563,-2.5573,-2.5581,-2.5588,-2.5597,-2.5586,-2.5597,-2.5613,-2.5622,-2.564,-2.5654,-2.5667,-2.5668,-2.5654,-2.5653,-2.5659,-2.5661,-2.5661,-2.5659,-2.5573,-2.565,-2.565,-2.5649,-2.5649,-2.5648,-2.5592,-2.5607,-2.561,-2.5624,-2.5629,-2.5636,-2.565,-2.5648,-2.5661,-2.5674,-2.5668,-2.5687,-2.5692,-2.5707,-2.5711,-2.5726,-2.5714,-2.5723,-2.5725,-2.5727,-2.5729,-2.5662,-2.5728,-2.5728,-2.5728,-2.5728,-2.5728,0,-2.5655,-2.5657,-2.567,-2.568,-2.5691,-2.5679,-2.5686,-2.5696,-2.5713,-2.5719,-2.5731,-2.575,-2.5765,-2.5764,-2.5778,-2.579,-2.5784,-2.5794,-2.5792,-2.5792,-2.574,-2.5732,-2.5799,-2.5799,-2.5799,-2.5799,-2.5799,-2.5799,-2.5689,-2.5713,-2.571,-2.5737,-2.5739,-2.5756,-2.5762,-2.5769,-2.5773,-2.5795,-2.5807,-2.5807,-2.5811,-2.5826,-2.5839,-2.5839,-2.5844,-2.5856,-2.5853,-2.5803,-2.5796,-2.5789,-2.5782,-2.5857,-2.5857,-2.5903,-2.5904,-2.5904]},{"header":{"parameterUnit":"m.s-1","parameterCategory":1,"la1":30.2991,"la2":30.254,"lo1":-89.0895,"lo2":-89.0444,"dy":0.0017,"dx":0.0017,"nx":28,"ny":28,"refTime":"2025-12-15T03:00:00:Z","depth":0,"parameterNumber":3,"parameterNumberName":"V-component_of_WINDS"},"data":[0,0,0,0,0,0,0,0,0,0,0,0,0,0,0,0,0,0,0,0,0,0,0,0,0,0,0,0,0,0,0,0,0,0,0,0,0,0,0,0,0,0,0,0,0,0,0,0,0,0,0,0,0,0,0,0,0,0,0.7197,0.7197,0,0.7197,0.7197,0.7197,0.7259,0.7261,0.7262,0.7264,0.7258,0.7256,0.7254,0,0,0,0,0,0,0,0,0,0,0,0,0,0.7246,0.7245,0.7197,0.7197,0.7197,0.7197,0.7197,0.7197,0.7259,0.7261,0.7263,0.7265,0.7258,0.7256,0.7254,0,0,0,0,0,0,0,0,0,0,0,0,0,0.7233,0.7245,0.7197,0.7228,0.7231,0.7197,0.7197,0.7196,0.7258,0.7261,0.7263,0.7266,0.7259,0.7256,0.7254,0.7188,0,0,0.7246,0.7245,0,0,0,0,0,0,0,0,0.7234,0.7231,0.7223,0.7226,0.7229,0.7231,0.7212,0.7193,0.7258,0.7248,0.7264,0.7267,0.7246,0.7245,0.7239,0.7188,0.7187,0.7246,0.7244,0.7243,0.7242,0,0,0,0,0,0,0,0.7235,0.7231,0.7197,0.7223,0.7227,0.724,0.7241,0.7209,0.7233,0.7249,0.7253,0.7253,0.7248,0.7241,0.7239,0.7187,0.7246,0.7244,0.7242,0.7241,0.7082,0.7079,0,0,0,0,0,0,0.7232,0.7232,0.7197,0.7197,0.7238,0.7237,0.7238,0.7227,0.7233,0.7237,0.7251,0.7256,0.7245,0.7242,0.7239,0.7163,0.7243,0.7241,0.7239,0.7084,0.7081,0.7078,0,0,0,0,0,0,0.7233,0.7228,0.7197,0.7215,0.7213,0.7234,0.7221,0.7226,0.722,0.7235,0.7239,0.724,0.7247,0.7243,0.7201,0.7164,0.724,0.7237,0.7088,0.7083,0.708,0.7009,0,0,0,0,0,0,0.7234,0.7228,0.7205,0.7215,0.7211,0.7159,0.7219,0.7224,0.7216,0.7222,0.7226,0.7229,0.7248,0.7204,0.7198,0.7162,0.7235,0.7091,0.7086,0.7081,0.7015,0.7004,0.6994,0,0,0,0,0,0.7235,0.7183,0.7203,0.7198,0.7183,0.7157,0.7155,0.7181,0.7212,0.7188,0.7198,0.7228,0.7169,0.7199,0.7193,0.7155,0.7093,0.7087,0.7081,0.702,0.7006,0.6994,0,0,0,0,0,0,0.7166,0.7185,0.7207,0.7157,0.7155,0.7168,0.7138,0.7165,0.7152,0.7158,0.7189,0.7189,0.7142,0.7144,0.7178,0.7092,0.7136,0.7129,0.7092,0.7079,0.7068,0.7068,0.7233,0,0,0,0,0,0.7146,0.7125,0.7142,0.7096,0.7094,0.7116,0.7106,0.7126,0.7124,0.7123,0.713,0.7126,0.7106,0.7092,0.7075,0.7016,0.7017,0.6986,0.6975,0.6967,0.696,0.6928,0.6915,0.7058,0.7058,0.7059,0,0,0.7102,0.711,0.7095,0.7082,0.7083,0.706,0.7115,0.7088,0.707,0.7118,0.708,0.7084,0.7081,0.703,0.7008,0.7031,0.692,0.6959,0.6952,0.695,0.6921,0.6907,0.6895,0.7054,0.7055,0.7056,0,0,0.7011,0.7015,0.6977,0.6978,0.6979,0.6994,0.6985,0.6993,0.6999,0.6961,0.6997,0.6975,0.6941,0.6938,0.6931,0.6839,0.6866,0.6832,0.6776,0.6745,0.6734,0.6724,0.6691,0.6679,0.6825,0.6825,0.6825,0,0.6956,0.6924,0.6954,0.6925,0.6919,0.6963,0.6925,0.6923,0.6917,0.6911,0.6937,0.6895,0.6896,0.6845,0.6823,0.6816,0.6806,0.6832,0.6733,0.6724,0.6715,0.6684,0.6671,0.6821,0.6821,0.6822,0.6822,0,0.6857,0.6834,0.6803,0.6799,0.6789,0.6755,0.6779,0.6764,0.6785,0.6797,0.6757,0.676,0.6744,0.6733,0.6752,0.6685,0.6699,0.6728,0.6774,0.6697,0.6668,0.6656,0.6815,0.6817,0.6818,0.6819,0,0,0.6722,0.6736,0.6724,0.6723,0.6728,0.671,0.6678,0.6665,0.6652,0.6646,0.6619,0.6589,0.6617,0.661,0.6629,0.6602,0.6529,0.6635,0.6635,0.6615,0.6454,0.6432,0.6418,0.6547,0.6545,0.6543,0.6455,0,0.6634,0.6583,0.6609,0.6552,0.6532,0.6573,0.6545,0.6544,0.6554,0.6536,0.6546,0.6525,0.6563,0.6559,0.6534,0.6543,0.6497,0.6549,0.6521,0.6519,0.6521,0.6403,0.638,0.6296,0.6443,0.6442,0.644,0,0.6525,0.6518,0.646,0.6469,0.6462,0.6436,0.6426,0.6409,0.6408,0.6417,0.6409,0.6434,0.6402,0.6447,0.6402,0.6437,0.6427,0.6429,0.6427,0.6425,0.6475,0.6399,0.627,0.6258,0.6423,0.6424,0.6426,0,0.6434,0.6408,0.6371,0.6369,0.6378,0.636,0.6362,0.6364,0.6354,0.6345,0.6339,0.6324,0.6317,0.6304,0.6324,0.6355,0.6276,0.6323,0.6282,0.6281,0.6263,0.6264,0.6132,0.6256,0.6256,0.6256,0.6256,0,0.6333,0.6296,0.633,0.6307,0.6267,0.6296,0.6255,0.6262,0.6263,0.6241,0.6275,0.6253,0.6281,0.6261,0.6276,0.6236,0.6232,0.6237,0.6242,0.6235,0.6234,0.6229,0.6235,0.6253,0.6254,0.6254,0.6255,0,0.6224,0.6246,0.6208,0.622,0.6223,0.6192,0.6202,0.6181,0.6193,0.6164,0.6159,0.6178,0.6156,0.6175,0.6153,0.6164,0.6111,0.6123,0.6112,0.6116,0.6073,0.6077,0.5933,0.5915,0.605,0.6049,0.6048,0,0.6159,0.6133,0.6143,0.6131,0.6133,0.6113,0.6105,0.6132,0.6121,0.6118,0.6096,0.6078,0.6065,0.6028,0.6038,0.6022,0.6034,0.5985,0.6032,0.6026,0.6034,0.6036,0.6033,0.5975,0.5974,0.5973,0.5972,0,0.6042,0.6054,0.6041,0.6031,0.602,0.6012,0.6008,0.5996,0.6024,0.6009,0.5989,0.5979,0.5958,0.5939,0.5926,0.5927,0.5953,0.5957,0.5946,0.5939,0.5933,0.5936,0.6086,0.596,0.5961,0.5962,0.5963,0.5963,0.5953,0.5932,0.5936,0.5919,0.5919,0.5914,0.5895,0.5905,0.5889,0.5876,0.5892,0.5867,0.5866,0.5852,0.585,0.5829,0.5849,0.5834,0.583,0.5826,0.582,0.5936,0.5826,0.5827,0.5827,0.5827,0.5828,0,0.5838,0.5843,0.5828,0.5822,0.5808,0.5836,0.5832,0.5819,0.5797,0.5795,0.5782,0.5758,0.574,0.5749,0.5733,0.5714,0.5726,0.5709,0.5711,0.5711,0.5803,0.5814,0.57,0.57,0.57,0.57,0.57,0.57,0.5777,0.5742,0.5754,0.5718,0.5723,0.57,0.5695,0.569,0.5689,0.5661,0.5647,0.5654,0.5656,0.564,0.5624,0.5627,0.5619,0.5598,0.5605,0.5692,0.5704,0.5716,0.5727,0.5596,0.5596,0.5515,0.5514,0.5514]}]]